Regional Weather Roundup
Issued by NWS Little Rock, AR

Home | Current Version | Previous Version | Graphics & Text | Print | Product List | Glossary On
Versions: 1 2 3 4 5 6 7 8 9 10 11 12 13 14 15 16 17 18 19 20 21 22 23 24 25 26 27 28 29 30 31 32 33 34 35 36 37 38 39 40 41 42 43 44 45 46 47 48 49 50
481
ASUS44 KLZK 270705
RWRLZK

WEATHER ROUNDUP FOR ARKANSAS
NATIONAL WEATHER SERVICE LITTLE ROCK AR
200 AM CDT THU APR 27 2017

NOTE: "FAIR" INDICATES FEW OR NO CLOUDS BELOW 12,000 FEET WITH NO
SIGNIFICANT WEATHER AND/OR OBSTRUCTIONS TO VISIBILITY.

ARZ001-003-010-029-270800-
NORTHWEST ARKANSAS

CITY           SKY/WX    TMP DP  RH WIND       PRES   REMARKS
FAYETTEVILLE   CLEAR     41  41 100 CALM      29.73F FOG
FORT SMITH     CLEAR     47  43  86 CALM      29.74F
HARRISON       CLEAR     43  41  93 W7        29.69S
BENTONVILLE    PTCLDY    43  39  87 CALM      29.73S
ROGERS         PTCLDY    42  41  96 SW5       29.73S
SILOAM SPGS    MOCLDY    43  37  81 CALM      29.72F
HIGHFILL       MOCLDY    43  42  97 SW6       29.72F
$$

ARZ004-005-016-270800-
NORTH CENTRAL ARKANSAS

CITY           SKY/WX    TMP DP  RH WIND       PRES   REMARKS
BATESVILLE     CLOUDY   N/A N/A N/A W8G17     29.69R
FLIPPIN        CLOUDY   N/A N/A N/A W6        29.65F
MTN HOME       CLOUDY    46  42  86 VRB6      29.66S
$$

ARZ040-041-270800-
WEST CENTRAL ARKANSAS

CITY           SKY/WX    TMP DP  RH WIND       PRES   REMARKS
MENA           CLEAR     48  46  93 W3        29.74F
MOUNT IDA      CLEAR     46  43  89 CALM      29.71S
$$

ARZ009-017-025-026-028-270800-
NORTHEAST ARKANSAS

CITY           SKY/WX    TMP DP  RH WIND       PRES   REMARKS
CORNING        CLOUDY    50  48  93 W10       29.64R
JONESBORO      CLOUDY    50  46  86 W12       29.65R
NEWPORT        CLOUDY    50  45  83 W12       29.69R
WALNUT RIDGE   CLOUDY    50  43  76 W12       29.66R
BLYTHEVILLE    CLOUDY    54  52  93 NW17G26   29.62R
$$

ARZ022-023-033-042-044-270800-
CENTRAL ARKANSAS

CITY           SKY/WX    TMP DP  RH WIND       PRES   REMARKS
LITTLE ROCK    CLOUDY    51  47  86 W8        29.71F
N LITTLE ROCK    N/A     49  46  90 W6        29.70F
JACKSONVILLE   CLOUDY    52  48  86 W7        29.69F
CONWAY           N/A     50  46  87 W8        29.70F
SEARCY         CLOUDY    52  50  93 VRB3      29.71R
HOT SPRINGS    CLEAR     49  46  90 NW3       29.73F
RUSSELLVILLE   CLEAR     48  45  89 W10       29.71F
CLINTON          N/A     50  46  87 CALM      29.69F
$$

ARZ036-270800-
EAST ARKANSAS

CITY           SKY/WX    TMP DP  RH WIND       PRES   REMARKS
WEST MEMPHIS   LGT RAIN  54  54 100 N8        29.65R FOG
$$

ARZ050-053-066-070-073-270800-
SOUTHWEST ARKANSAS

CITY           SKY/WX    TMP DP  RH WIND       PRES   REMARKS
ARKADELPHIA    FAIR      50  49  96 W3        29.77R
CAMDEN         CLEAR     50  46  87 W3        29.76S
TEXARKANA      CLEAR     49  47  93 SW5       29.78S
EL DORADO      CLOUDY    53  48  83 NW12G24   29.77R
DE QUEEN       CLEAR     46  46 100 W6        29.76R
$$

ARZ056-057-069-270800-
SOUTHEAST ARKANSAS

CITY           SKY/WX    TMP DP  RH WIND       PRES   REMARKS
PINE BLUFF     CLOUDY    53  47  79 NW17      29.73S
STUTTGART      CLOUDY    52  41  66 W14       29.71S
MONTICELLO     CLOUDY    54  50  86 W10G17    29.73R

$$






USA.gov is the U.S. government's official web portal to all federal, state and local government web resources and services.